FW6938 Weather Reports


time (UTC)temp
C
wind
direction
speed
KPH
gust
KPH
rain 1hr
cm
rain 24hr
cm
rain mn
cm
humidity
%
barometer
mb
20260903164539 23 153 6.4 17.7 0.00 0.00 0.00 19 1018.2
20260903150043 16 0 0.0 12.9 0.00 0.00 0.00 26 1018.1
20260903144535 13 0 0.0 3.2 0.00 0.00 0.00 37 1018.0
20260903143037 12 0 0.0 3.2 0.00 0.00 0.00 43 1018.0
20260903141537 12 0 0.0 1.6 0.00 0.00 0.00 40 1017.8
20260903140050 12 0 0.0 0.0 0.00 0.00 0.00 39 1017.7
20260903134542 12 0 0.0 0.0 0.00 0.00 0.00 40 1017.9
20260903133038 12 0 0.0 0.0 0.00 0.00 0.00 39 1017.4
20260903131538 12 0 0.0 1.6 0.00 0.00 0.00 35 1017.4
20260903130038 12 0 0.0 1.6 0.00 0.00 0.00 33 1017.1
20260903124539 12 0 0.0 1.6 0.00 0.00 0.00 31 1017.1
20260903123038 12 0 0.0 0.0 0.00 0.00 0.00 35 1017.1
20260903121534 12 0 0.0 4.8 0.00 0.00 0.00 44 1017.2
20260903120036 11 0 0.0 0.0 0.00 0.00 0.00 40 1016.9
20260903114558 12 0 0.0 0.0 0.00 0.00 0.00 41 1016.8
20260903113038 12 0 0.0 3.2 0.00 0.00 0.00 37 1016.8
20260903111534 12 0 0.0 1.6 0.00 0.00 0.00 40 1016.8
20260903110107 12 242 0.0 3.2 0.00 0.00 0.00 39 1017.0
20260903104539 13 0 0.0 3.2 0.00 0.00 0.00 35 1016.7
20260903103037 13 0 0.0 4.8 0.00 0.00 0.00 33 1016.8
20260903101537 13 0 0.0 3.2 0.00 0.00 0.00 37 1016.6
20260903100035 14 0 0.0 3.2 0.00 0.00 0.00 36 1016.6
20260903094541 15 0 0.0 3.2 0.00 0.00 0.00 33 1016.5
20260903093050 16 0 0.0 4.8 0.00 0.00 0.00 26 1016.7
20260903091537 16 0 0.0 1.6 0.00 0.00 0.00 29 1016.6
20260903090035 17 0 0.0 0.0 0.00 0.00 0.00 23 1016.5
20260903084536 18 0 0.0 11.3 0.00 0.00 0.00 23 1016.5
20260903083036 20 0 0.0 8.0 0.00 0.00 0.00 20 1016.4
20260903081540 20 0 0.0 8.0 0.00 0.00 0.00 19 1016.6
20260903080037 20 265 3.2 16.1 0.00 0.00 0.00 19 1016.5
20260903074555 21 225 1.6 14.5 0.00 0.00 0.00 19 1016.3
20260903073035 21 145 3.2 16.1 0.00 0.00 0.00 18 1016.2
20260903071538 21 140 3.2 16.1 0.00 0.00 0.00 18 1016.2
20260903070038 21 214 1.6 14.5 0.00 0.00 0.00 18 1016.0
20260903064533 21 0 1.6 9.7 0.00 0.00 0.00 20 1015.9
20260903063034 21 215 3.2 9.7 0.00 0.00 0.00 19 1015.9
20260903061537 22 148 3.2 14.5 0.00 0.00 0.00 18 1015.8
20260903060036 22 144 3.2 22.5 0.00 0.00 0.00 18 1015.4
20260903054537 22 150 8.0 19.3 0.00 0.00 0.00 16 1015.5
20260903053037 23 142 4.8 24.1 0.00 0.00 0.00 16 1015.3
20260903051539 23 226 6.4 24.1 0.00 0.00 0.00 16 1015.3
20260903050036 23 138 6.4 24.1 0.00 0.00 0.00 16 1015.4
20260903044536 22 163 4.8 19.3 0.00 0.00 0.00 16 1015.5
20260903043035 22 220 3.2 14.5 0.00 0.00 0.00 18 1015.4
20260903041536 22 187 1.6 8.0 0.00 0.00 0.00 18 1015.4
20260903040041 23 0 0.0 6.4 0.00 0.00 0.00 18 1015.3
20260903034539 23 147 4.8 14.5 0.00 0.00 0.00 17 1015.3
20260903033040 23 0 0.0 11.3 0.00 0.00 0.00 20 1015.3
20260903031534 23 0 1.6 12.9 0.00 0.00 0.00 19 1015.1
20260903030037 23 140 1.6 8.0 0.00 0.00 0.00 20 1015.0
20260903024543 23 0 1.6 11.3 0.00 0.00 0.00 21 1014.7
20260903023036 23 142 3.2 12.9 0.00 0.00 0.00 22 1014.6
20260903021538 23 215 1.6 8.0 0.00 0.00 0.00 21 1014.4
20260903020035 23 221 1.6 14.5 0.00 0.00 0.00 20 1014.7
20260903014542 23 0 3.2 14.5 0.00 0.00 0.00 23 1014.6
20260903013036 23 0 0.0 8.0 0.00 0.00 0.00 25 1014.7
20260903011537 24 0 0.0 8.0 0.00 0.00 0.00 25 1014.9
20260903010035 24 0 0.0 6.4 0.00 0.00 0.00 21 1015.1
20260903004538 25 0 0.0 4.8 0.00 0.00 0.00 22 1015.0
20260903003035 25 146 1.6 11.3 0.00 0.00 0.00 20 1015.3
20260903001539 26 0 1.6 11.3 0.00 0.00 0.00 20 1015.3
20260903000036 26 207 4.8 19.3 0.00 0.00 0.00 20 1015.1
20260902234537 26 226 1.6 9.7 0.00 0.00 0.00 21 1015.2
20260902233034 26 142 4.8 17.7 0.00 0.00 0.00 19 1015.3
20260902231534 25 184 4.8 14.5 0.00 0.00 0.00 19 1015.5
20260902230034 26 152 4.8 16.1 0.00 0.00 0.00 21 1015.7
20260902224543 26 142 4.8 22.5 0.00 0.00 0.00 20 1015.4
20260902223036 27 137 4.8 25.7 0.00 0.00 0.00 19 1015.4
20260902221536 26 147 4.8 19.3 0.00 0.00 0.00 23 1015.6
20260902220036 26 213 4.8 14.5 0.00 0.00 0.00 22 1015.8
20260902214539 26 175 6.4 29.0 0.00 0.13 0.00 24 1016.0
20260902213038 26 113 6.4 25.7 0.00 0.13 0.00 24 1015.9
20260902211536 26 269 8.0 25.7 0.00 0.13 0.00 26 1016.1
20260902210050 26 205 6.4 25.7 0.00 0.13 0.00 26 1016.1
20260902204533 26 248 9.7 32.2 0.00 0.13 0.00 24 1016.2
20260902203035 26 165 9.7 25.7 0.00 0.13 0.00 26 1016.5
20260902201538 26 16 11.3 25.7 0.00 0.13 0.00 25 1016.8
20260902200036 26 198 9.7 30.6 0.00 0.13 0.00 29 1017.1
20260902194540 26 0 6.4 24.1 0.00 0.13 0.00 29 1017.4
20260902193037 26 240 6.4 20.9 0.00 0.13 0.00 29 1017.4
20260902191538 26 118 8.0 27.4 0.00 0.13 0.00 30 1017.8
20260902190039 26 137 6.4 17.7 0.00 0.13 0.00 31 1017.8
20260902184537 25 220 6.4 25.7 0.00 0.13 0.00 34 1017.9
20260902183036 25 255 6.4 19.3 0.00 0.13 0.00 35 1017.9
20260902181536 25 254 8.0 25.7 0.00 0.13 0.00 37 1018.2
20260902180036 25 255 8.0 24.1 0.00 0.13 0.00 37 1018.2
20260902174537 23 0 4.8 20.9 0.00 0.13 0.00 42 1018.5
20260902173039 22 196 3.2 11.3 0.00 0.13 0.00 44 1018.5
20260902171536 22 139 3.2 16.1 0.00 0.13 0.00 45 1018.4
20260902170036 23 175 4.8 16.1 0.00 0.13 0.00 43 1018.2